This is the latest recevied weather packets stored in our database for station/object OE9XVI-6. If no packets are shown the sender has not sent any weather packets the latest 1 day(s).
| Time | Temp. | Humidity | Pressure | Rain* | Wind** | Luminosity | Snow |
|---|---|---|---|---|---|---|---|
| 1777966614 | 13.33° C | 51% | 1010.5 hPa | 0 mm | 1.79 m/s, 146° | - | - |
| 1777966014 | 13.89° C | 51% | 1010.6 hPa | 0 mm | 0.89 m/s, 161° | - | - |
| 1777965414 | 13.89° C | 52% | 1010.6 hPa | 0 mm | 0 m/s | - | - |
| 1777964814 | 13.33° C | 53% | 1010.7 hPa | 0 mm | 0.89 m/s, 171° | - | - |
| 1777964214 | 12.78° C | 56% | 1010.8 hPa | 0 mm | 0 m/s | - | - |
| 1777963614 | 12.78° C | 57% | 1010.7 hPa | 0 mm | 0 m/s | - | - |
| 1777963014 | 12.22° C | 58% | 1010.7 hPa | 0 mm | 0 m/s | - | - |
| 1777962414 | 12.22° C | 55% | 1010.8 hPa | 0 mm | 0.89 m/s, 156° | - | - |
| 1777961814 | 11.67° C | 54% | 1010.7 hPa | 0 mm | 0 m/s | - | - |
| 1777961214 | 11.67° C | 57% | 1010.7 hPa | 0 mm | 0 m/s | - | - |
| 1777960614 | 11.67° C | 61% | 1010.7 hPa | 0 mm | 0.89 m/s, 172° | - | - |
| 1777960014 | 11.67° C | 57% | 1010.7 hPa | 0 mm | 0.45 m/s, 139° | - | - |
| 1777959414 | 11.11° C | 57% | 1010.8 hPa | 0 mm | 0.89 m/s, 147° | - | - |
| 1777958814 | 10.56° C | 58% | 1010.8 hPa | 0 mm | 0 m/s | - | - |
| 1777958214 | 10° C | 58% | 1010.7 hPa | 0 mm | 0 m/s | - | - |
| 1777957614 | 10° C | 59% | 1010.8 hPa | 0 mm | 0.89 m/s, 144° | - | - |
| 1777957014 | 9.44° C | 57% | 1010.9 hPa | 0 mm | 0 m/s | - | - |
| 1777956414 | 9.44° C | 56% | 1010.9 hPa | 0 mm | 0.89 m/s, 142° | - | - |
| 1777955814 | 9.44° C | 56% | 1010.8 hPa | 0 mm | 0 m/s | - | - |
| 1777955214 | 8.89° C | 57% | 1010.8 hPa | 0 mm | 0.45 m/s, 312° | - | - |
| 1777954614 | 8.89° C | 58% | 1010.7 hPa | 0 mm | 1.34 m/s, 150° | - | - |
| 1777954014 | 8.89° C | 57% | 1010.9 hPa | 0 mm | 0 m/s | - | - |
| 1777953414 | 8.89° C | 56% | 1010.8 hPa | 0 mm | 0.89 m/s, 154° | - | - |
| 1777952814 | 8.89° C | 58% | 1011.1 hPa | 0 mm | 0.45 m/s, 120° | - | - |
| 1777952214 | 9.44° C | 59% | 1011.2 hPa | 0 mm | 0 m/s | - | - |
* Rain latest hour (hover to see other rain measurements)
** Current wind speed in m/s (hover to see current wind gust speed)